Wetbulb
58.11 58.20 58.44 58.62 58.73 59.01 59.47 59.88 60.05 59.92 59.98 60.30 60.34 60.23 60.36 60.57 59.98 53.51 48.32 54.10 56.14 63.69 58.04 51.20 50.31 48.96 48.97 47.43 47.22 43.26 36.98 34.04 36.45 37.66 40.16 40.83 40.50 42.39 42.57 41.02 42.13 44.68 42.09 42.93 44.35
57.73 57.71 57.94 57.99 57.86 57.99 58.48 59.02 59.21 59.32 59.47 59.84 60.06 60.10 60.02 60.30 52.56 49.42 57.89 63.64 64.99 63.55 51.15 49.31 46.96 47.29 45.02 45.32 45.55 41.26 34.24 36.78 40.07 40.62 40.41 41.22 41.04 40.97 41.60 40.28 40.74 42.60 42.25 43.03 43.90
57.54 57.34 57.29 57.34 57.40 57.77 58.12 58.32 58.37 58.62 58.92 59.16 59.58 59.85 59.90 57.78 46.56 46.53 63.80 65.25 65.49 60.44 51.50 49.47 48.24 47.35 42.58 43.84 43.88 41.45 38.17 40.58 43.65 44.45 43.23 42.01 40.26 42.35 40.32 40.25 41.85 42.95 43.63 42.10 41.61
57.16 56.94 56.86 56.88 57.13 57.56 57.83 58.02 58.13 58.22 58.36 58.71 59.17 59.78 59.80 52.61 38.14 48.47 64.35 65.28 64.42 53.94 50.32 48.03 46.16 43.15 41.34 41.34 44.20 39.79 43.77 43.35 44.92 45.25 42.63 41.47 41.96 40.53 41.51 45.88 44.83 44.84 42.67 41.57 40.80
57.33 56.92 56.67 56.71 56.97 57.50 57.94 58.08 57.97 57.85 57.95 58.21 58.87 59.80 53.59 44.37 45.58 54.41 63.06 62.29 53.58 50.98 48.54 46.34 44.21 43.35 40.47 40.37 41.37 40.83 42.66 44.69 44.27 44.99 42.98 43.09 42.04 41.63 42.48 45.15 44.29 44.11 42.88 42.11 41.96
57.15 56.64 56.65 56.88 57.05 57.36 57.84 58.05 58.05 57.91 57.69 58.05 58.46 59.49 47.52 39.88 49.54 55.64 54.21 51.39 49.76 48.93 46.65 46.33 44.90 45.95 42.39 42.10 41.35 40.99 42.09 42.42 42.59 43.16 42.87 42.69 42.93 41.04 46.15 41.72 43.56 43.16 42.76 41.90 42.24
57.09 56.70 56.57 56.88 57.32 57.76 58.09 58.10 58.24 58.31 57.93 57.87 58.23 56.39 46.86 44.41 50.77 52.99 51.14 48.83 49.63 49.03 46.29 47.31 47.30 44.70 42.95 41.30 43.48 41.94 39.66 40.42 40.92 41.85 41.87 40.97 40.83 39.15 46.27 42.58 43.34 42.16 42.54 41.76 42.43
57.07 56.65 56.62 56.98 57.39 57.80 58.24 58.52 58.64 58.70 58.22 57.97 58.42 51.16 41.46 49.60 49.45 49.04 48.79 47.49 48.27 48.71 47.67 47.47 47.88 45.42 43.27 43.47 40.82 36.32 35.87 33.28 38.53 39.57 40.46 41.94 36.66 42.86 41.49 41.63 42.35 41.99 40.40 41.23 41.88
56.93 56.64 56.92 57.31 57.45 57.58 57.98 58.32 58.06 57.57 57.62 58.77 51.15 45.58 42.08 52.49 47.91 49.73 48.02 47.10 47.41 47.68 47.24 50.24 46.52 42.12 40.98 36.26 33.26 31.12 29.03 30.47 35.23 40.85 38.99 38.14 35.72 42.29 41.09 39.05 41.12 41.26 41.44 40.89 41.82
57.15 56.95 57.23 57.52 57.58 57.77 57.98 57.64 56.91 55.41 55.28 54.70 51.77 42.36 44.78 44.58 47.47 48.57 46.44 47.70 45.26 45.26 43.94 42.95 40.56 36.76 35.45 33.33 28.52 29.57 28.25 30.42 31.69 36.03 36.27 35.54 36.02 41.21 43.66 40.40 42.26 41.42 41.51 40.63 42.16
57.44 57.40 57.60 57.72 57.96 58.45 54.64 46.59 42.45 40.84 43.92 42.75 43.24 42.37 43.53 47.26 48.84 46.53 46.89 46.11 45.10 41.72 36.35 38.42 34.41 32.93 37.20 36.62 38.21 31.78 30.70 30.64 34.58 37.98 35.40 35.33 37.00 39.82 43.30 43.12 42.55 41.81 43.25 44.76 45.75
57.74 57.68 57.71 57.79 58.06 57.73 47.95 44.16 42.27 41.70 37.96 43.39 42.56 44.15 45.80 47.27 42.93 45.13 46.94 41.93 40.22 36.31 37.14 34.97 32.01 38.26 37.38 36.12 35.73 34.62 33.03 33.07 37.13 39.18 34.45 35.29 35.86 38.95 39.56 41.94 44.16 44.79 44.84 44.34 44.77
57.85 57.57 57.46 57.57 57.34 52.16 45.20 44.09 48.50 46.21 36.71 40.58 42.73 41.67 42.30 45.36 41.58 42.39 45.09 41.19 38.08 35.52 35.74 34.48 37.41 39.89 37.21 35.05 34.61 32.35 31.62 33.98 33.47 35.58 34.43 33.02 33.97 34.54 37.68 41.34 43.69 44.72 45.34 45.15 44.58
57.93 57.61 57.54 57.20 53.18 49.27 44.52 47.07 47.42 43.77 31.33 35.90 38.19 41.21 43.30 43.72 38.94 43.40 43.35 41.43 37.34 36.05 34.90 34.32 38.16 37.80 34.84 34.77 35.64 32.65 36.06 35.76 34.59 30.30 28.41 32.23 26.85 33.23 36.40 37.12 39.07 41.54 42.91 43.28 44.38
57.62 57.78 57.81 56.18 50.78 49.58 48.75 48.25 46.29 40.47 26.59 38.64 37.72 45.32 43.66 38.30 38.46 39.43 41.86 40.27 35.62 35.66 34.78 33.91 33.42 33.04 33.43 35.84 36.61 34.51 36.53 34.24 31.47 28.31 27.60 27.93 25.97 31.08 34.04 33.76 37.81 41.48 43.18 44.12 44.44
57.71 57.66 57.04 54.01 51.28 52.39 51.13 48.51 44.06 34.80 27.72 35.32 37.68 37.22 36.63 37.84 37.64 38.18 38.43 39.99 38.60 34.88 34.44 35.68 36.18 36.35 36.23 36.33 36.51 35.47 33.05 31.32 28.51 27.43 23.50 29.83 27.91 34.03 30.95 35.13 35.97 39.80 41.18 43.02 44.09
57.31 57.18 55.62 55.91 51.93 51.44 49.69 44.10 37.80 32.41 38.29 33.90 33.52 36.57 34.88 34.58 35.63 36.03 35.11 33.55 33.18 29.14 28.39 30.92 33.42 35.53 36.70 32.91 33.71 33.75 30.61 24.13 21.01 20.52 24.87 29.10 27.54 34.92 35.77 36.75 37.28 39.29 40.61 42.18 41.58
53.84 56.47 54.85 55.56 53.04 54.24 52.45 45.11 32.99 37.51 36.10 38.83 36.12 35.01 34.54 36.06 36.33 34.23 31.39 30.49 33.39 31.49 27.65 27.78 29.83 33.66 36.13 36.03 33.33 31.38 31.84 24.89 17.09 20.91 27.95 27.01 24.22 34.16 37.25 39.51 39.32 38.08 38.75 37.80 39.44
53.45 55.03 54.04 54.75 54.66 54.33 48.59 36.55 36.12 39.60 41.67 41.23 41.73 37.58 35.53 34.73 36.15 32.95 30.74 31.06 34.59 34.42 32.35 28.04 29.23 32.92 34.68 35.04 36.75 30.08 28.68 34.40 26.87 22.38 19.22 25.38 31.09 37.03 41.67 37.89 36.06 37.67 36.37 37.62 38.02
50.07 51.83 51.35 54.86 54.86 51.17 44.31 39.08 38.65 43.53 43.10 40.67 36.90 37.87 32.60 32.02 32.28 30.44 31.17 33.37 34.06 35.17 35.99 35.13 29.49 32.90 31.19 32.61 31.92 33.47 33.23 27.04 26.02 19.57 18.89 24.43 26.13 31.31 36.73 37.21 36.92 38.14 37.33 37.16 36.58
46.29 42.62 46.46 54.52 52.38 45.33 37.60 37.56 41.39 43.90 44.13 41.21 39.10 38.38 37.79 36.51 35.88 36.32 36.41 37.49 36.13 35.79 36.49 35.33 33.43 32.69 31.75 30.43 32.95 28.51 28.28 29.12 29.41 28.24 25.08 23.66 27.43 38.20 39.36 40.87 35.73 36.25 39.03 38.84 36.40
43.26 36.91 49.10 52.97 42.42 42.25 38.04 39.48 42.85 41.68 43.67 43.38 41.88 40.86 38.19 38.09 36.55 36.72 36.72 39.71 39.22 39.02 35.52 36.54 33.89 29.77 31.97 36.96 33.63 32.76 31.40 32.72 27.96 25.81 26.88 28.88 29.83 40.89 41.90 41.63 40.91 40.74 37.24 36.92 36.55
40.57 39.25 49.57 50.33 35.83 36.36 38.78 39.24 41.54 40.66 41.22 40.51 39.87 40.80 41.25 37.84 34.73 37.61 38.48 42.34 42.26 40.03 37.50 37.41 33.04 28.80 30.30 31.76 33.00 31.78 34.82 33.59 34.46 33.19 28.29 25.15 28.29 41.31 41.28 41.25 41.92 38.30 39.73 38.76 41.09
38.82 32.43 41.13 44.63 43.64 39.17 36.53 36.70 36.91 41.92 40.94 41.73 40.34 41.01 39.02 36.94 38.75 35.14 35.82 38.86 37.97 39.16 41.28 41.14 35.58 32.27 27.04 30.71 32.71 28.32 29.75 32.89 33.36 28.49 28.44 28.84 30.64 35.85 38.41 39.54 41.60 42.41 40.74 39.80 40.84
37.35 33.33 35.87 32.63 35.97 37.97 38.04 36.55 34.33 33.98 38.97 39.64 38.07 38.05 36.06 33.76 34.38 33.42 32.79 33.03 35.76 36.79 34.87 32.69 27.88 31.04 31.61 30.12 30.38 30.43 31.00 31.93 30.91 32.15 28.39 30.67 31.21 35.54 38.37 39.62 40.98 40.32 39.05 35.97 34.83
31.60 32.47 34.73 32.62 33.22 34.61 36.59 33.60 33.63 34.54 36.58 35.43 34.96 31.76 31.28 29.57 29.58 27.39 25.75 26.79 26.38 30.45 27.67 29.95 23.49 27.55 23.23 27.38 28.96 28.00 29.69 30.98 31.65 31.38 31.98 33.39 32.97 38.65 34.52 33.69 31.00 33.19 32.12 31.66 32.68
33.01 36.65 33.97 30.43 29.05 28.21 29.96 32.17 32.17 31.54 33.92 34.71 29.66 27.87 26.76 28.35 29.12 29.52 29.90 28.86 27.91 25.15 23.69 23.45 19.13 13.67 16.18 23.35 23.36 19.87 25.47 28.40 30.58 32.93 31.42 27.85 27.31 30.51 25.78 27.39 26.28 30.79 30.48 30.20 31.44
MSLP
1019.97 1019.72 1019.54 1019.34 1019.14 1018.96 1018.71 1018.42 1018.15 1017.90 1017.64 1017.43 1017.16 1016.86 1016.53 1016.20 1015.91 1015.94 1015.42 1013.77 1013.76 1013.97 1014.36 1014.98 1015.25 1015.36 1015.58 1015.95 1016.29 1016.93 1017.75 1017.79 1016.70 1015.63 1014.17 1013.39 1013.34 1013.00 1013.01 1013.24 1013.41 1013.45 1013.63 1014.03 1014.54
1020.05 1019.82 1019.61 1019.40 1019.14 1018.89 1018.72 1018.49 1018.19 1017.90 1017.65 1017.35 1017.12 1016.83 1016.55 1016.29 1016.06 1015.29 1013.35 1013.29 1013.53 1013.93 1014.53 1015.03 1015.37 1015.52 1015.96 1016.18 1016.50 1017.04 1017.75 1016.79 1015.44 1014.52 1013.89 1013.39 1013.33 1013.11 1013.26 1013.24 1013.32 1013.36 1013.58 1014.20 1014.81
1020.15 1019.92 1019.67 1019.46 1019.23 1018.95 1018.63 1018.45 1018.20 1017.85 1017.56 1017.29 1017.05 1016.77 1016.40 1016.26 1015.85 1013.87 1013.03 1013.27 1013.58 1013.92 1014.26 1014.73 1015.13 1015.53 1016.05 1016.27 1016.46 1016.79 1016.73 1015.80 1014.75 1014.19 1013.79 1013.52 1013.27 1012.99 1013.05 1012.71 1012.88 1013.06 1013.06 1014.15 1014.85
1020.19 1020.08 1019.80 1019.47 1019.19 1018.93 1018.65 1018.37 1018.11 1017.82 1017.56 1017.27 1016.98 1016.70 1016.31 1016.12 1015.23 1013.05 1012.93 1013.13 1013.57 1013.95 1014.47 1014.87 1015.34 1015.80 1016.10 1016.26 1016.00 1016.61 1015.66 1015.36 1014.47 1013.98 1013.90 1013.71 1013.15 1013.14 1012.98 1011.18 1011.53 1011.86 1012.63 1013.82 1014.45
1020.25 1020.04 1019.86 1019.58 1019.21 1018.83 1018.51 1018.18 1017.91 1017.70 1017.48 1017.22 1016.93 1016.64 1016.31 1015.98 1014.29 1013.01 1013.20 1013.50 1013.94 1014.24 1014.48 1014.96 1015.47 1015.75 1016.00 1016.02 1016.11 1016.24 1015.54 1015.07 1014.56 1014.38 1014.14 1013.85 1013.10 1013.17 1012.12 1010.98 1011.55 1011.93 1012.59 1013.08 1013.42
1020.28 1020.03 1019.74 1019.51 1019.20 1018.80 1018.40 1018.03 1017.69 1017.46 1017.28 1017.18 1016.94 1016.80 1016.54 1015.45 1012.94 1013.09 1013.52 1013.95 1014.12 1014.40 1014.71 1014.91 1015.11 1015.22 1015.69 1015.78 1015.98 1015.63 1015.42 1015.08 1014.67 1014.36 1014.23 1014.12 1012.79 1013.09 1010.36 1010.80 1011.19 1011.66 1011.82 1012.18 1012.56
1020.18 1020.02 1019.77 1019.47 1019.14 1018.67 1018.14 1017.73 1017.38 1017.05 1016.89 1016.87 1016.85 1016.86 1016.35 1013.78 1012.96 1013.26 1013.46 1013.74 1013.98 1014.22 1014.40 1014.57 1014.69 1015.12 1015.51 1015.59 1015.46 1015.53 1015.59 1014.84 1014.25 1013.64 1013.99 1014.04 1012.78 1012.22 1009.79 1010.87 1010.92 1011.05 1011.05 1011.26 1011.28
1020.04 1019.87 1019.66 1019.39 1018.95 1018.43 1017.78 1017.32 1016.78 1016.37 1016.29 1016.37 1016.68 1016.82 1015.35 1013.05 1013.10 1013.43 1013.60 1013.75 1013.87 1014.06 1014.19 1014.32 1014.35 1014.92 1015.31 1015.41 1015.56 1016.02 1016.04 1015.50 1013.73 1013.86 1013.64 1013.82 1012.23 1010.26 1010.20 1010.66 1010.47 1010.20 1010.40 1010.49 1010.09
1019.95 1019.71 1019.45 1019.17 1018.82 1018.20 1017.33 1016.76 1016.27 1015.73 1015.95 1016.04 1016.59 1016.58 1014.84 1013.25 1013.22 1013.05 1013.34 1013.71 1013.92 1014.13 1014.21 1014.34 1014.58 1015.26 1015.64 1016.27 1016.94 1017.02 1016.60 1015.87 1014.53 1013.39 1013.85 1013.91 1012.68 1010.08 1010.28 1010.92 1010.71 1010.04 1009.64 1009.53 1008.94
1019.73 1019.51 1019.25 1018.95 1018.59 1018.00 1017.08 1016.32 1016.17 1015.95 1016.16 1016.26 1016.28 1016.68 1014.12 1013.25 1013.08 1013.20 1013.48 1013.73 1014.21 1014.55 1014.80 1015.01 1015.61 1015.95 1016.75 1016.98 1017.26 1016.86 1017.07 1016.17 1015.54 1013.76 1013.86 1013.59 1012.50 1011.01 1009.94 1010.37 1010.00 1009.85 1009.22 1008.65 1007.95
1019.54 1019.36 1019.11 1018.93 1018.51 1017.87 1017.27 1016.64 1016.83 1016.80 1016.60 1015.79 1015.54 1015.06 1013.72 1013.33 1013.07 1013.48 1013.64 1014.00 1014.50 1015.01 1015.49 1015.79 1016.42 1016.02 1015.01 1015.61 1015.47 1016.18 1016.34 1015.93 1014.63 1013.55 1013.78 1013.17 1012.34 1011.60 1010.38 1009.65 1009.01 1008.45 1008.02 1007.32 1006.57
1019.29 1019.18 1019.00 1018.85 1018.57 1017.94 1017.84 1018.51 1019.02 1019.32 1017.65 1015.39 1014.77 1014.49 1013.50 1013.30 1013.42 1013.65 1013.66 1014.55 1015.09 1015.62 1016.03 1016.66 1016.23 1015.26 1015.49 1015.88 1016.24 1016.22 1015.92 1015.50 1014.22 1013.68 1013.93 1012.98 1011.28 1010.71 1010.11 1009.13 1007.29 1006.19 1005.68 1005.35 1004.85
1019.14 1019.00 1018.89 1018.68 1018.49 1018.44 1018.97 1019.21 1019.18 1019.30 1018.79 1015.36 1014.34 1013.86 1013.31 1013.41 1013.45 1013.77 1013.97 1014.58 1015.16 1015.88 1015.90 1015.73 1014.97 1015.01 1015.60 1015.87 1015.66 1015.79 1016.12 1014.90 1014.78 1014.08 1013.58 1012.63 1009.81 1009.10 1008.26 1007.80 1006.65 1005.13 1004.40 1004.38 1004.30
1018.77 1018.78 1018.82 1018.62 1018.82 1019.24 1019.20 1019.01 1019.06 1019.20 1018.57 1015.27 1013.97 1013.41 1013.32 1013.15 1013.59 1013.76 1013.93 1014.28 1015.15 1015.31 1015.76 1015.70 1014.49 1014.74 1015.27 1015.35 1015.03 1015.36 1014.28 1014.70 1014.87 1015.28 1014.49 1013.10 1009.74 1009.23 1007.94 1006.97 1006.02 1004.72 1003.65 1003.31 1002.58
1018.38 1018.44 1018.58 1018.72 1018.88 1019.00 1018.87 1018.97 1019.10 1019.42 1017.68 1014.38 1013.75 1013.70 1013.56 1013.69 1013.94 1014.07 1014.03 1013.99 1014.57 1015.19 1015.67 1014.85 1014.51 1014.70 1014.93 1013.97 1014.26 1013.75 1013.73 1014.29 1014.73 1015.10 1014.63 1013.34 1012.90 1006.56 1006.54 1006.60 1005.40 1003.79 1003.22 1002.86 1002.28
1018.09 1018.10 1018.49 1018.83 1018.90 1018.39 1018.56 1018.94 1019.21 1019.12 1016.25 1013.94 1013.55 1013.70 1013.90 1013.75 1014.08 1014.42 1014.37 1014.35 1014.56 1014.83 1014.98 1014.62 1014.25 1014.01 1013.35 1013.31 1013.68 1013.70 1014.07 1014.57 1015.49 1015.71 1014.52 1012.32 1012.23 1000.89 1005.72 1005.01 1004.53 1003.81 1003.34 1002.97 1002.33
1017.82 1017.91 1018.39 1018.19 1018.27 1018.08 1018.65 1019.23 1019.07 1017.29 1014.77 1014.00 1013.73 1013.98 1013.90 1014.10 1014.17 1014.32 1014.49 1014.78 1015.09 1015.31 1014.83 1014.29 1013.92 1013.08 1012.89 1013.29 1013.63 1014.02 1014.77 1015.67 1015.84 1015.61 1012.85 1011.03 1011.07 1003.73 1004.56 1004.05 1003.76 1003.74 1003.26 1002.66 1002.61
1018.41 1017.95 1018.01 1018.06 1018.13 1018.18 1018.75 1019.32 1017.95 1015.57 1014.58 1013.74 1013.73 1014.11 1014.14 1013.95 1013.90 1014.37 1014.98 1015.05 1014.64 1014.87 1014.73 1014.29 1012.71 1012.68 1012.61 1012.64 1012.61 1013.30 1014.25 1015.32 1014.64 1013.95 1011.90 1011.29 1008.88 1004.44 1003.41 1002.94 1002.87 1003.28 1003.42 1003.34 1003.08
1018.03 1017.99 1018.04 1017.95 1018.21 1018.42 1018.74 1018.17 1016.46 1015.44 1014.74 1014.10 1014.02 1014.13 1014.07 1014.10 1014.32 1014.60 1014.90 1014.41 1013.95 1013.82 1014.06 1013.34 1011.58 1011.60 1011.76 1012.02 1012.59 1013.30 1013.31 1012.70 1013.33 1013.16 1012.79 1010.44 1007.24 1005.45 1002.48 1002.59 1002.74 1002.89 1002.97 1003.18 1003.06
1018.38 1018.24 1017.73 1017.12 1017.84 1018.50 1018.24 1015.83 1015.40 1014.31 1014.03 1014.07 1014.07 1014.15 1013.92 1014.03 1014.72 1014.92 1014.42 1013.66 1013.48 1012.98 1012.85 1012.90 1012.39 1011.59 1011.78 1012.12 1012.36 1012.53 1012.72 1013.01 1013.55 1012.89 1011.10 1008.81 1007.13 1004.76 1001.99 1002.48 1002.67 1003.04 1003.22 1003.38 1003.06
1018.81 1018.56 1017.17 1016.93 1017.52 1018.18 1016.41 1014.98 1014.44 1013.77 1013.69 1014.16 1013.81 1014.01 1013.55 1013.85 1014.13 1014.14 1013.40 1013.31 1012.94 1012.84 1013.01 1013.14 1013.25 1011.86 1012.36 1011.94 1012.02 1012.94 1012.70 1012.43 1012.43 1011.62 1009.49 1007.78 1005.98 1003.74 1002.10 1000.95 1002.08 1002.68 1002.99 1002.97 1003.09
1019.01 1018.71 1017.04 1016.96 1017.74 1016.73 1015.48 1014.87 1014.58 1014.02 1013.71 1013.79 1014.31 1013.85 1013.45 1013.78 1013.76 1013.76 1013.05 1012.51 1012.41 1012.84 1013.60 1013.20 1013.34 1013.28 1011.65 1010.96 1011.19 1011.41 1011.34 1010.85 1010.66 1009.26 1008.28 1006.75 1004.10 1002.95 1001.21 1001.63 1001.50 1001.72 1002.19 1002.88 1003.33
1019.09 1018.09 1017.14 1016.91 1016.42 1015.87 1015.11 1014.65 1014.22 1013.88 1014.05 1013.90 1013.70 1013.72 1013.75 1013.73 1014.03 1013.22 1012.88 1012.49 1012.87 1012.98 1012.74 1012.99 1013.29 1012.47 1012.08 1012.17 1010.87 1011.40 1010.56 1010.23 1009.40 1008.77 1007.14 1005.30 1003.10 1002.97 1002.64 1001.30 1001.36 1002.39 1002.69 1002.82 1002.82
1019.52 1018.87 1017.72 1016.78 1015.88 1015.88 1015.21 1014.33 1013.99 1013.80 1013.87 1014.06 1013.60 1014.04 1014.25 1014.35 1014.51 1014.30 1013.99 1013.86 1014.08 1013.85 1014.09 1013.88 1013.27 1012.78 1012.00 1011.17 1010.49 1010.17 1009.78 1009.11 1008.87 1007.90 1005.84 1005.16 1003.87 1003.98 1002.98 1002.19 1001.95 1002.93 1002.94 1002.83 1002.93
1019.96 1018.99 1018.09 1017.34 1016.74 1016.17 1015.64 1014.97 1014.59 1014.12 1014.22 1014.23 1013.80 1014.25 1014.77 1015.02 1015.15 1015.33 1015.84 1015.46 1015.32 1014.79 1015.06 1015.33 1014.13 1013.81 1013.09 1012.79 1012.41 1011.36 1011.09 1010.32 1009.51 1008.05 1006.65 1005.63 1005.12 1004.79 1004.31 1003.85 1003.27 1004.14 1004.60 1005.07 1005.44
1020.29 1019.64 1019.38 1018.72 1018.01 1017.24 1016.21 1015.27 1015.27 1014.94 1015.32 1015.03 1015.06 1015.72 1016.36 1016.37 1016.76 1017.40 1017.76 1017.33 1017.12 1016.35 1016.44 1016.33 1015.67 1015.12 1014.22 1013.34 1012.73 1011.26 1010.43 1009.77 1009.33 1008.60 1007.35 1006.90 1006.33 1006.66 1007.12 1006.73 1006.81 1007.26 1007.42 1007.22 1006.91
1020.36 1020.33 1020.71 1019.13 1018.80 1018.14 1017.16 1016.41 1016.21 1016.63 1016.51 1016.54 1017.05 1017.35 1017.44 1017.74 1018.18 1018.54 1018.62 1018.22 1018.18 1017.81 1016.82 1017.50 1016.72 1016.02 1014.26 1013.07 1012.83 1010.69 1009.36 1009.41 1009.04 1008.11 1008.66 1009.18 1010.10 1009.27 1009.79 1009.85 1009.64 1009.16 1008.82 1008.43 1007.99
Wind_Speed
12 13 13 14 14 14 14 14 13 13 12 12 12 12 12 11 8 1 6 9 5 12 6 6 2 1 3 1 2 3 4 3 5 4 5 1 2 2 0 2 3 7 4 1 5
11 12 13 14 15 15 15 15 14 14 14 13 12 11 10 8 1 7 9 5 7 14 6 7 4 3 1 1 0 4 3 8 6 4 4 3 4 3 1 4 5 5 2 3 7
11 12 13 14 15 15 15 16 15 14 14 14 13 12 10 4 4 7 2 8 13 9 5 5 4 4 2 2 4 5 7 5 6 7 4 4 3 4 4 9 9 10 9 7 8
10 11 12 13 14 16 16 16 16 16 15 14 13 12 10 1 6 2 5 10 10 6 6 5 4 3 3 5 4 3 9 6 5 4 2 5 3 4 8 19 6 13 3 8 12
8 9 11 13 14 15 17 17 16 16 15 14 14 12 2 2 11 3 7 8 6 6 7 5 5 4 4 3 2 4 5 6 5 8 7 7 11 8 13 15 9 7 7 11 12
8 9 10 11 14 16 17 18 18 16 14 13 12 9 1 5 2 7 8 6 4 4 4 6 5 7 4 4 5 2 5 8 5 6 6 6 12 5 22 1 11 9 13 11 14
8 10 11 12 14 16 17 18 19 16 14 12 9 2 2 16 2 6 8 5 6 5 5 5 5 3 0 4 3 4 9 9 7 7 10 5 16 13 26 5 12 11 11 10 16
9 10 11 13 14 17 19 18 18 17 13 9 4 2 9 2 4 5 4 3 4 4 3 2 6 4 4 2 7 4 2 5 1 7 4 10 19 17 6 7 15 12 10 10 13
10 11 12 13 15 19 21 21 14 4 4 7 4 3 10 2 2 4 4 5 5 3 2 3 4 3 2 5 5 3 6 8 14 12 4 8 10 12 2 4 13 12 11 10 13
10 11 12 14 16 20 24 15 5 3 4 2 1 2 5 5 1 3 1 5 4 5 4 3 5 2 3 5 8 8 6 6 8 3 5 6 14 15 14 6 15 12 13 13 15
10 11 12 13 15 19 12 4 6 3 3 8 6 5 5 2 1 3 2 4 3 4 6 2 4 10 20 14 13 3 5 9 9 8 5 10 15 16 20 17 18 15 17 21 22
9 9 12 12 14 17 3 5 1 2 9 8 10 8 4 1 2 3 5 5 3 5 5 3 8 17 3 3 8 9 13 16 16 19 5 16 22 16 13 15 25 24 22 21 21
10 8 9 11 14 5 3 2 2 2 3 11 5 5 5 7 7 5 9 5 5 6 9 11 10 8 6 5 12 5 8 16 15 9 6 11 18 12 11 19 23 26 24 20 19
10 8 7 11 3 2 1 1 2 2 3 9 3 2 1 3 3 1 3 4 2 10 6 7 4 10 4 9 9 14 11 12 12 3 8 4 15 7 8 11 13 19 18 18 20
9 9 4 1 2 0 3 3 4 2 8 3 1 3 2 4 3 2 0 2 4 4 3 10 2 3 6 15 9 11 6 6 4 5 6 6 5 3 5 7 15 20 17 16 19
8 8 7 2 1 1 4 4 1 3 11 2 2 0 1 1 1 2 2 2 2 2 3 9 2 5 10 6 10 0 2 3 4 3 8 10 9 29 6 9 6 10 11 15 18
4 5 7 4 2 5 4 2 2 8 3 2 2 4 3 5 4 6 5 4 4 3 3 1 5 5 5 3 2 4 5 5 5 1 12 6 8 27 8 6 9 11 12 15 10
12 3 4 2 4 3 3 1 9 0 4 3 1 1 4 5 6 3 3 4 6 3 1 4 13 7 6 9 9 9 11 9 8 9 16 4 9 17 12 8 8 5 10 9 13
8 1 2 3 5 2 2 7 5 4 5 2 7 8 5 3 5 4 8 7 9 14 11 6 13 2 4 3 6 3 7 7 3 4 0 7 14 14 27 11 5 7 6 10 10
2 2 3 6 9 2 6 21 10 11 6 4 12 8 9 5 3 3 6 3 5 9 2 5 11 5 2 2 2 7 2 3 2 4 10 8 8 15 23 16 6 9 9 9 8
1 2 4 8 5 3 12 9 10 9 6 6 10 18 12 8 11 13 8 4 3 2 7 5 6 14 4 7 13 2 4 6 3 7 16 18 11 18 29 29 7 8 11 11 7
1 3 2 7 6 4 13 11 6 5 6 11 4 9 8 13 19 22 22 16 7 7 7 7 3 8 21 16 5 6 12 13 11 12 9 17 19 16 27 21 18 19 9 9 6
3 3 2 3 9 12 7 10 8 16 14 5 10 8 11 17 15 16 20 12 9 7 5 4 5 7 5 10 4 9 15 15 21 20 24 25 20 19 20 26 21 11 10 9 9
2 3 3 5 7 7 14 19 18 6 12 12 15 12 13 14 12 5 11 4 6 5 10 5 9 18 21 19 6 6 9 13 22 15 22 23 28 24 27 29 28 20 8 6 7
2 3 2 3 9 13 11 10 15 11 6 5 5 14 10 10 5 2 3 5 3 6 4 4 4 8 11 11 12 13 18 19 24 23 23 23 29 22 21 24 22 15 17 16 15
1 1 3 4 7 4 11 17 21 18 6 11 10 4 4 1 3 4 6 2 4 5 7 3 9 12 22 23 22 18 20 25 24 28 28 33 33 19 15 15 20 13 12 13 14
1 2 1 4 3 2 5 6 4 4 1 1 7 3 4 1 3 8 10 11 14 15 20 6 5 3 22 26 21 19 23 19 21 22 18 16 10 13 18 18 19 10 12 13 14
Wind_Direction
13 9 3 1 360 356 354 353 354 352 350 347 351 351 342 335 320 197 239 219 179 157 104 113 92 120 61 78 98 122 69 245 252 197 258 267 233 194 143 234 225 206 191 316 114
2 358 354 353 352 349 347 347 347 345 341 340 342 345 337 333 302 243 249 220 147 144 111 145 169 133 60 200 142 109 141 226 217 226 248 267 206 252 286 233 252 275 219 89 138
354 354 353 352 349 346 345 343 340 335 333 332 335 336 327 316 336 247 331 177 156 154 131 155 101 133 203 143 206 175 212 218 258 237 259 264 257 211 220 258 206 214 227 168 178
347 347 349 347 345 344 341 340 335 329 326 325 328 329 319 256 297 222 137 146 147 136 120 133 124 158 209 216 190 210 247 215 258 231 263 250 280 242 206 251 197 224 175 166 189
332 336 335 335 337 335 332 330 326 323 321 321 323 326 316 12 250 136 116 120 110 132 167 154 153 156 207 212 261 225 258 261 257 274 257 305 249 238 257 257 250 241 186 203 207
319 319 321 321 322 323 323 320 318 315 312 314 316 318 163 242 219 144 123 112 127 139 155 132 196 201 225 226 188 271 269 275 281 249 255 239 280 138 264 231 248 239 234 220 213
311 314 318 319 316 314 311 312 310 301 297 297 301 276 220 236 45 137 141 164 161 156 155 187 176 161 113 296 300 295 313 308 206 223 229 156 286 233 259 190 265 243 248 236 227
304 310 313 313 312 311 310 311 306 296 283 279 248 211 243 311 121 136 167 134 135 156 143 161 164 164 180 259 349 350 316 322 299 122 252 139 267 264 276 212 265 267 255 254 247
300 306 310 314 316 315 314 315 316 352 152 134 118 164 264 121 201 200 146 147 122 96 73 113 120 176 86 97 353 346 248 229 305 192 156 182 248 276 313 223 279 283 276 265 270
296 306 312 317 322 320 320 318 292 96 86 166 284 23 277 260 215 116 117 128 116 112 70 84 57 148 51 113 226 227 224 253 246 270 179 230 250 281 285 197 256 265 279 273 268
291 303 310 319 324 324 339 1 11 345 27 194 198 246 273 307 58 62 121 94 90 83 175 210 133 205 220 199 219 205 219 238 253 261 211 236 252 251 271 282 272 263 257 260 263
280 294 309 320 324 328 20 59 90 216 304 250 250 259 264 148 289 165 130 138 151 206 118 58 225 232 66 161 224 239 255 263 271 268 220 269 263 258 233 248 260 267 264 258 264
272 281 297 317 326 30 36 49 95 103 264 289 220 202 233 152 213 230 147 135 170 181 204 207 231 227 203 222 242 213 228 256 262 309 239 286 276 236 253 248 259 264 261 270 261
257 268 290 318 55 322 40 233 105 122 327 272 261 272 210 162 159 240 180 147 220 225 207 232 261 219 153 223 228 264 224 252 267 333 267 17 297 318 225 236 243 257 259 256 261
248 251 236 12 204 150 209 160 124 57 299 259 175 312 343 147 134 3 14 91 211 200 160 250 223 160 198 228 162 243 179 228 198 198 315 184 252 241 191 242 245 256 264 264 263
267 249 168 153 157 244 123 127 138 48 250 313 95 291 112 22 70 90 110 71 137 229 214 244 313 201 218 219 188 124 97 76 60 115 273 199 165 286 174 208 241 256 267 267 276
326 223 175 153 202 114 88 292 240 222 355 258 161 190 213 197 225 181 160 161 193 303 272 40 218 256 190 247 165 140 72 307 326 95 232 138 173 258 304 259 215 243 259 270 308
340 264 233 192 133 59 82 177 236 59 277 299 318 75 235 166 244 185 128 235 236 205 185 212 283 190 174 197 199 186 169 178 218 259 271 96 241 269 232 244 263 269 262 291 296
317 233 221 209 157 144 158 220 232 182 225 271 311 301 273 271 210 161 209 222 219 183 212 195 262 172 195 162 159 166 191 233 301 336 334 247 271 297 279 267 240 275 321 308 314
350 285 227 176 155 161 229 233 231 208 201 204 231 219 227 204 183 188 190 196 250 192 331 306 283 174 184 142 211 191 321 331 355 246 248 232 257 261 278 271 320 318 312 301 308
22 276 263 140 125 221 230 241 244 209 184 217 260 255 248 259 228 245 248 245 231 253 173 205 218 264 121 193 237 151 241 209 207 213 252 255 245 248 266 284 241 267 287 291 291
182 245 212 150 203 213 239 230 207 218 219 233 270 260 262 273 270 258 252 228 154 132 256 214 247 251 261 269 206 190 223 221 230 248 229 254 249 252 268 275 284 280 273 291 288
241 245 230 211 228 229 250 265 255 255 241 226 238 224 254 262 273 255 265 273 294 256 235 167 244 253 226 295 235 211 240 234 248 257 252 257 261 258 270 278 281 284 296 279 281
320 271 232 236 236 251 241 246 249 223 253 246 258 258 263 263 254 269 263 261 349 16 353 349 241 253 258 259 269 258 223 230 229 242 254 254 268 267 268 274 282 284 292 328 308
236 260 325 242 242 251 249 269 267 273 236 236 235 245 266 264 264 203 357 333 277 66 43 53 288 319 315 322 313 318 309 305 289 278 266 275 277 273 281 286 295 355 13 28 16
234 296 358 308 308 293 232 242 257 267 252 260 254 67 55 248 32 333 4 56 289 344 349 328 268 296 288 283 281 279 286 273 271 275 274 274 272 301 0 351 356 10 31 13 360
320 354 345 257 285 260 256 259 293 33 168 340 75 24 290 50 323 270 256 248 247 266 281 240 243 269 275 282 288 270 259 268 271 266 297 293 360 6 354 360 340 9 7 8 358